EW1558 Weather Reports


Display with metric or nautical units.
time (UTC)temp
F
wind
direction
speed
MPH
gust
MPH
rain 1hr
in
rain 24hr
in
rain mn
in
humidity
%
barometer
mb
20260506234526 53 97 1.0 11.0 0.00 0.00 0.00 43 1012.3
20260506233026 54 28 3.0 10.0 0.00 0.00 0.00 44 1012.2
20260506231528 54 44 1.0 14.0 0.00 0.00 0.00 44 1012.1
20260506230026 54 65 1.0 9.0 0.00 0.00 0.00 43 1011.9
20260506224526 55 355 3.0 12.0 0.00 0.00 0.00 42 1011.9
20260506223024 55 32 3.0 8.0 0.00 0.00 0.00 42 1011.8
20260506221523 55 297 2.0 9.0 0.00 0.00 0.00 41 1011.7
20260506220030 56 319 2.0 10.0 0.00 0.00 0.00 41 1011.5
20260506214522 56 106 2.0 6.0 0.00 0.00 0.00 41 1011.4
20260506213028 56 344 4.0 7.0 0.00 0.00 0.00 40 1011.4
20260506211524 56 316 2.0 7.0 0.00 0.00 0.00 39 1011.3
20260506210025 58 38 3.0 9.0 0.00 0.00 0.00 38 1011.2
20260506204525 57 174 2.0 9.0 0.00 0.00 0.00 38 1011.2
20260506203026 57 88 3.0 9.0 0.00 0.00 0.00 37 1011.4
20260506201521 57 71 2.0 8.0 0.00 0.00 0.00 37 1011.4
20260506200019 57 312 1.0 12.0 0.00 0.00 0.00 37 1011.8
20260506194518 56 97 2.0 9.0 0.00 0.00 0.00 41 1011.9
20260506193019 58 113 4.0 13.0 0.00 0.00 0.00 37 1012.0
20260506191515 57 279 1.0 12.0 0.00 0.00 0.00 38 1012.0
20260506190014 56 58 4.0 10.0 0.00 0.00 0.00 37 1012.1
20260506184514 56 182 3.0 12.0 0.00 0.00 0.00 37 1012.0
20260506183013 56 310 2.0 9.0 0.00 0.00 0.00 39 1012.0
20260506181520 55 17 2.0 13.0 0.00 0.00 0.00 38 1012.0
20260506180015 57 137 4.0 9.0 0.00 0.00 0.00 37 1011.8
20260506174511 56 295 2.0 9.0 0.00 0.00 0.00 37 1012.1
20260506173009 55 355 3.0 9.0 0.00 0.00 0.00 38 1012.0
20260506171515 55 54 2.0 11.0 0.00 0.00 0.00 38 1012.3
20260506170008 55 82 1.0 8.0 0.00 0.00 0.00 40 1012.5
20260506164506 55 148 0.0 8.0 0.00 0.00 0.00 40 1012.4
20260506163006 55 200 1.0 6.0 0.00 0.00 0.00 41 1012.3
20260506161505 55 331 1.0 10.0 0.00 0.00 0.00 40 1012.4
20260506160005 55 95 1.0 10.0 0.00 0.00 0.00 39 1012.4
20260506154503 54 209 2.0 9.0 0.00 0.00 0.00 40 1012.4
20260506153001 54 111 1.0 6.0 0.00 0.00 0.00 42 1012.4
20260506151608 53 34 1.0 8.0 0.00 0.00 0.00 44 1012.5
20260506150054 51 252 1.0 17.0 0.00 0.00 0.00 51 1012.6
20260506144552 49 223 4.0 7.0 0.00 0.00 0.00 57 1012.7
20260506143055 48 210 4.0 7.0 0.00 0.00 0.00 56 1012.7
20260506141551 49 194 1.0 5.0 0.00 0.00 0.00 57 1012.7
20260506140059 48 212 2.0 6.0 0.00 0.00 0.00 59 1012.7
20260506134548 48 184 4.0 5.0 0.00 0.00 0.00 57 1012.5
20260506133048 48 195 3.0 5.0 0.00 0.00 0.00 54 1012.2
20260506131542 49 190 2.0 4.0 0.00 0.00 0.00 52 1012.2
20260506130040 49 213 2.0 4.0 0.00 0.00 0.00 52 1012.1
20260506124537 48 248 0.0 3.0 0.00 0.00 0.00 55 1012.0
20260506123034 48 292 0.0 2.0 0.00 0.00 0.00 62 1011.7
20260506121532 46 323 0.0 2.0 0.00 0.00 0.00 69 1011.7
20260506120132 45 324 0.0 2.0 0.00 0.00 0.00 74 1011.5
20260506114540 43 323 1.0 3.0 0.00 0.00 0.00 78 1011.5
20260506113030 42 325 1.0 3.0 0.00 0.00 0.00 81 1011.4
20260506111533 40 327 0.0 2.0 0.00 0.00 0.00 82 1011.4
20260506110034 40 336 1.0 3.0 0.00 0.00 0.00 83 1011.1
20260506104526 40 347 2.0 3.0 0.00 0.00 0.00 81 1010.8
20260506103022 40 360 2.0 3.0 0.00 0.00 0.00 79 1010.6
20260506101532 41 30 2.0 3.0 0.00 0.00 0.00 76 1010.4
20260506100016 43 93 1.0 3.0 0.00 0.00 0.00 73 1010.6
20260506094517 44 96 0.0 3.0 0.00 0.00 0.00 71 1010.5
20260506093015 44 97 0.0 0.0 0.00 0.00 0.00 71 1010.6
20260506091514 44 97 0.0 2.0 0.00 0.00 0.00 70 1010.6
20260506090009 45 98 0.0 2.0 0.00 0.00 0.00 67 1010.7
20260506084515 47 98 0.0 3.0 0.00 0.00 0.00 65 1010.4
20260506083003 47 94 2.0 7.0 0.00 0.00 0.00 64 1010.5
20260506081502 47 113 2.0 7.0 0.00 0.00 0.00 66 1010.4
20260506073105 48 100 6.0 8.0 0.00 0.00 0.00 68 1010.0
20260506071610 48 99 5.0 8.0 0.00 0.00 0.00 67 1010.0
20260506061551 49 85 9.0 14.0 0.00 0.00 0.00 68 1010.2
20260506044538 50 61 9.0 15.0 0.00 0.00 0.00 62 1009.8
20260506043036 51 65 11.0 17.0 0.00 0.00 0.00 64 1009.7
20260506041544 51 24 1.0 5.0 0.00 0.00 0.00 56 1009.4
20260506040032 51 53 2.0 6.0 0.00 0.00 0.00 58 1009.3
20260506034531 51 45 2.0 10.0 0.00 0.00 0.00 65 1009.2
20260506033031 53 47 5.0 10.0 0.00 0.00 0.00 47 1008.8
20260506031528 53 36 4.0 10.0 0.00 0.00 0.00 43 1008.8
20260506030031 53 59 5.0 11.0 0.00 0.00 0.00 44 1008.9
20260506024524 52 20 1.0 5.0 0.00 0.00 0.00 47 1008.5
20260506023023 52 53 0.0 1.0 0.00 0.00 0.00 47 1008.5
20260506021521 53 53 0.0 1.0 0.00 0.00 0.00 47 1008.3
20260506020022 53 53 0.0 0.0 0.00 0.00 0.00 46 1008.0
20260506014519 54 53 0.0 0.0 0.00 0.00 0.00 43 1007.6
20260506013025 54 53 0.0 1.0 0.00 0.00 0.00 43 1007.4
20260506011516 55 53 0.0 1.0 0.00 0.00 0.00 41 1007.2
20260506010023 55 53 0.0 4.0 0.00 0.00 0.00 40 1007.0
20260506004519 55 13 1.0 7.0 0.00 0.00 0.00 39 1007.0
20260506003014 56 55 2.0 6.0 0.00 0.00 0.00 39 1006.8
20260506001515 56 84 2.0 10.0 0.00 0.00 0.00 40 1006.8
20260506000018 56 11 0.0 5.0 0.00 0.00 0.00 39 1006.7